Disclaimer

Please do not use the information listed here in-flight or in-navigation, as they are not provided to us by the airports but are provided by volunteers, so they might be outdated.

Search


Regions


Airport information page

Radio informations:
Tower (TWR) - 129.4 MHz
SINGLE FREQ APP - 378.225 MHz
DISPATCH - 339.05 MHz
COMD POST - 315.4 MHz
PMSV METRO - 284.425 MHz
Ground (GND) - 123.025 MHz
PRECISION APP RA - 341.875 MHz
SUPERVISOR OF FL - 275.4 MHz
TUAF RAPCON - 235.125 MHz
ARRIVAL - 262.625 MHz
AMC AIRLIFT - 379.85 MHz
Approach (APP) - 128.0 MHz

Latitude: N/A
Longitude: N/A
Elevation: N/A
Operating hours: N/A
Operating agency: N/A
Timezone: N/A
Fuel: N/A

Recent METARs:
LTAG 171420Z 27017KT 9999 FEW035 10/M03 Q1017 NOSIG
LTAG 171450Z 27016KT CAVOK 10/M04 Q1017 NOSIG
LTAG 171520Z 27016KT CAVOK 09/M05 Q1018 NOSIG

Airport on the map: